Orbital Elements at Epoch 2459200.5 (2020-Dec-17.0) TDB
Reference: JPL 31 (heliocentric ecliptic J2000)
Element | Value | Uncertainty (1-sigma) | Units |
e | .08058813070521174 | 1.813e-08 | |
a | 2.695740323619451 | 1.207e-08 | au |
q | 2.478495650072297 | 5.2966e-08 | au |
i | 10.33114700384461 | 1.1175e-06 | deg |
node | 40.97306505455213 | 7.0794e-06 | deg |
peri | 248.1603156070789 | 1.7552e-05 | deg |
M | 288.362100276101 | 1.8488e-05 | deg |
tp | 2459522.203549959671 (2021-Nov-03.70354996) | 8.3567e-05 | TDB |
period | 1616.648148980354 4.43 | 1.0857e-05 2.972e-08 | d yr |
n | .2226829630350041 | 1.4955e-09 | deg/d |
Q | 2.912984997166605 | 1.3042e-08 | au |
|
| | Orbit Determination Parameters
Additional Information
|